RH
22 24 22 20 19 20 20 20 29 22 12 9 9 11 13 14 18 20 27 32 33 35 36 34 34 32 29 31 36 33 35 24 25 28 30 31 35 38 39 39 39 40 39 42
41 28 27 28 22 18 17 17 15 14 16 11 14 11 15 16 19 21 26 31 32 34 34 34 33 32 30 34 36 38 29 26 27 28 28 33 37 40 39 38 38 40 41 44
36 32 32 63 36 24 18 16 19 26 18 12 16 17 18 18 22 24 26 29 32 33 34 33 31 32 34 36 35 29 26 26 27 28 32 35 33 33 35 40 42 43 44 46
56 68 81 17 16 16 21 17 14 14 13 12 14 19 21 20 21 23 25 26 30 32 33 31 30 32 32 28 28 28 27 26 25 31 33 33 34 35 39 41 44 44 47 49
89 39 24 16 14 19 22 18 16 17 16 14 20 28 25 22 21 22 23 26 29 30 31 31 30 30 28 30 23 26 26 25 25 29 32 34 35 37 39 44 45 45 43 51
56 85 87 33 22 22 23 32 20 20 20 21 22 38 24 24 24 27 28 28 31 31 31 31 28 27 29 29 32 29 25 26 28 29 33 35 38 40 42 44 42 40 42 46
64 82 46 22 21 26 41 42 28 25 24 26 29 31 36 31 28 28 28 30 32 32 32 28 26 34 45 39 34 26 25 30 31 32 34 34 38 41 44 44 47 57 65 59
71 97 79 22 26 37 38 28 26 29 28 36 35 32 37 34 32 32 33 33 32 31 27 33 49 46 41 28 22 32 38 36 34 32 31 33 43 46 45 47 53 60 96 76
41 43 29 24 25 24 27 33 31 32 30 32 34 33 31 36 36 36 33 27 25 34 55 56 48 39 28 27 44 40 38 39 38 37 39 41 44 45 45 46 54 62 66 87
40 23 23 23 24 25 27 32 31 31 33 35 37 38 37 40 37 33 26 32 53 60 60 55 36 30 35 36 38 44 44 41 41 44 46 44 44 43 44 59 65 65 72 70
39 30 28 24 31 37 40 40 39 39 40 47 46 43 43 38 34 36 46 56 59 61 51 41 34 38 35 40 46 42 41 45 51 54 53 49 43 43 51 55 67 73 75 74
55 41 48 41 44 49 47 48 47 48 47 43 42 40 40 46 54 78 80 62 59 63 54 41 41 48 46 40 41 51 56 55 64 62 59 54 50 51 65 77 80 76 77 86
51 50 50 52 45 44 51 51 50 51 49 56 56 59 71 92 95 89 78 66 56 47 49 54 56 45 45 50 57 63 60 62 61 65 57 57 60 65 72 68 83 83 81 81
51 53 60 49 53 54 62 68 77 83 86 88 84 76 79 82 74 70 62 46 44 45 46 50 59 61 46 41 50 61 62 76 62 58 61 69 68 73 78 86 91 88 90 84
51 48 52 53 54 62 66 71 72 77 80 82 76 74 68 63 56 51 46 51 58 60 57 47 40 37 34 50 53 60 59 58 66 74 80 77 79 83 81 84 86 84 80 85
63 60 61 69 77 76 72 76 83 95 75 58 50 51 47 47 47 45 44 46 61 56 50 85 88 62 60 49 48 51 50 70 74 66 73 75 80 81 81 84 86 86 86 85
94 95 94 86 71 64 64 60 59 53 52 58 65 66 58 66 64 52 53 60 91 100 99 92 89 56 64 55 49 52 59 63 78 72 78 80 86 91 83 86 86 85 90 99
67 62 58 61 78 74 61 63 65 62 63 72 93 100 100 100 88 78 86 94 100 100 86 70 68 65 62 55 55 62 70 74 81 89 88 98 90 90 89 84 83 86 89 91
55 54 55 53 52 52 50 57 66 66 93 94 98 100 100 100 87 86 91 97 97 89 59 61 76 73 62 63 73 71 84 96 93 95 93 90 96 91 92 96 94 95 90 90
49 47 47 51 58 61 66 70 87 64 68 89 100 100 96 96 100 98 91 87 80 68 70 75 75 68 69 66 74 71 83 98 95 98 99 89 96 98 100 98 98 97 100 100
50 53 62 62 72 88 100 98 99 76 72 94 91 89 90 94 94 89 85 69 58 70 70 68 65 66 71 84 85 94 100 100 100 98 97 100 100 98 100 100 100 100 100 100
57 69 100 92 70 71 75 69 76 87 86 86 87 87 86 69 74 75 81 71 62 71 68 69 66 71 74 82 83 100 97 98 100 100 98 98 100 99 99 100 100 100 100 100
62 70 82 87 93 73 69 65 89 84 81 82 79 78 73 64 59 68 72 56 64 72 74 80 81 86 87 94 97 100 100 98 100 100 94 91 89 92 94 94 93 94 97 97
66 68 72 71 71 60 55 50 48 50 74 70 72 78 67 72 74 60 63 69 72 81 84 85 92 81 81 93 94 95 96 96 96 94 93 91 90 89 89 92 91 90 89 89
73 67 64 64 53 50 48 45 43 44 50 50 57 55 63 61 76 71 78 81 75 77 83 81 80 78 90 92 91 91 94 93 94 93 93 93 92 88 88 88 88 89 90 92
62 57 55 53 52 47 49 46 55 55 58 67 66 72 73 70 70 73 73 78 76 77 81 87 87 85 87 86 88 89 91 89 90 91 92 91 91 88 85 85 86 88 90 91
57 60 52 52 48 48 56 58 69 70 68 80 78 73 68 73 78 74 75 81 83 84 84 84 86 82 82 85 86 88 89 90 90 90 90 90 89 84 83 83 85 86 88 91
Wind_Speed
14 5 6 8 7 11 16 15 13 12 14 10 8 5 7 7 9 12 12 13 15 15 15 15 14 13 12 11 7 6 8 9 6 5 6 6 6 7 8 9 9 11 10 7
5 8 7 10 11 13 14 16 17 18 17 15 10 9 5 8 8 11 13 14 15 15 15 15 14 13 13 9 9 8 8 7 6 5 6 6 7 7 9 9 10 11 8 7
5 4 5 6 15 17 17 16 12 15 15 9 8 6 8 7 6 9 10 12 14 15 14 13 13 13 11 11 9 8 7 6 5 5 6 6 8 9 10 10 10 10 9 6
0 2 1 2 2 5 6 12 14 13 14 11 7 7 6 5 7 6 9 10 12 11 12 12 12 10 11 9 7 8 6 6 5 5 7 8 9 10 10 9 10 10 7 7
2 6 9 12 6 1 2 5 10 8 10 11 6 5 13 8 3 6 7 7 8 10 11 10 10 11 9 8 7 5 5 5 5 7 8 9 10 11 9 10 10 9 8 7
3 3 4 5 4 1 2 5 7 9 10 10 2 5 3 4 2 4 5 6 8 9 8 10 10 9 8 6 4 5 5 6 7 7 8 10 10 11 9 9 10 8 8 7
5 4 6 5 3 2 5 4 9 10 9 8 7 5 8 8 4 6 6 7 6 7 8 9 8 6 1 2 3 4 4 5 8 8 10 10 10 9 9 10 9 7 5 6
3 2 5 6 6 2 6 7 8 9 9 8 10 8 7 8 7 4 4 6 7 8 8 10 6 4 2 6 5 5 6 8 9 9 9 8 10 9 11 10 8 6 3 6
6 1 5 4 4 4 5 7 8 10 10 10 10 12 12 7 6 1 4 7 6 12 8 6 3 2 3 4 3 4 6 8 10 10 9 9 10 11 9 9 7 7 5 6
1 3 0 3 3 3 7 8 11 11 11 11 12 11 10 4 2 4 8 11 10 8 6 3 1 3 5 4 5 6 8 9 9 9 9 10 8 10 7 5 8 7 6 7
5 8 4 2 8 9 10 9 10 11 10 9 11 9 5 6 9 12 13 10 9 6 3 5 5 4 4 4 6 8 8 8 8 7 9 10 10 8 6 7 7 7 7 7
2 6 5 8 12 10 9 10 10 10 10 12 11 12 16 15 14 12 10 6 7 5 3 5 5 5 6 7 6 7 7 6 5 6 8 8 8 9 6 8 7 8 9 6
4 8 5 6 10 11 13 14 16 16 16 17 19 17 17 12 10 9 7 4 2 4 5 6 8 8 7 7 6 7 8 7 7 7 8 8 8 9 9 7 13 12 13 14
6 8 9 11 8 13 14 15 18 18 16 15 14 13 11 9 5 3 3 4 5 6 7 7 8 9 10 7 7 8 10 9 9 9 7 7 9 9 8 8 8 7 14 16
7 10 11 11 11 13 14 15 16 14 10 9 7 7 6 6 5 3 5 5 5 7 9 10 11 11 9 7 9 11 10 9 8 7 7 8 8 8 9 9 9 9 8 6
10 10 10 12 13 13 13 11 11 7 6 6 6 4 6 6 6 6 6 5 6 9 12 9 10 13 11 12 13 12 12 9 7 9 8 9 7 8 9 9 9 8 8 8
12 9 11 12 12 12 10 8 7 6 7 8 7 7 8 8 7 6 8 8 5 8 9 10 12 13 12 14 15 11 9 9 5 9 8 9 8 8 8 9 9 9 8 7
13 11 11 12 9 7 7 7 6 5 6 7 5 4 5 5 7 8 8 8 9 9 11 12 9 11 13 15 14 12 9 9 9 9 8 9 9 9 8 9 10 9 8 7
12 12 10 8 6 7 6 6 7 6 5 5 6 6 5 5 8 10 10 10 11 13 12 13 10 12 15 15 10 10 7 8 9 8 7 11 10 10 10 9 9 8 8 8
10 9 8 8 8 7 7 7 2 7 7 7 6 6 8 7 8 10 11 11 11 11 14 13 13 15 16 17 12 10 9 9 9 7 7 9 10 11 10 10 9 8 7 7
8 8 7 7 8 7 5 5 5 7 8 6 7 8 8 9 6 7 10 11 14 10 13 16 14 12 9 13 14 11 9 8 7 8 8 8 9 9 9 8 8 7 7 7
7 7 5 5 7 8 7 6 6 6 7 7 7 7 9 11 11 10 8 11 11 18 13 12 12 16 15 19 13 11 11 12 9 7 7 7 7 7 8 7 7 7 7 7
7 8 8 6 4 6 5 6 4 5 6 7 7 9 10 9 10 11 11 14 13 15 14 12 18 19 21 14 13 11 12 13 5 3 5 6 8 8 8 9 9 10 9 9
7 7 7 5 4 4 4 6 6 5 4 6 6 6 9 9 9 9 11 15 18 19 14 14 18 22 21 10 11 11 10 8 8 7 6 7 6 7 7 8 8 9 9 11
6 6 5 3 2 4 5 6 6 6 8 8 9 8 10 8 9 11 11 11 16 15 12 16 18 20 11 11 11 11 10 9 9 8 8 7 7 8 8 8 9 9 9 9
5 4 5 6 5 5 5 6 6 6 7 7 7 8 8 8 8 9 9 12 11 14 11 10 10 11 11 11 11 11 11 10 10 9 10 9 9 9 9 10 10 10 9 10
6 4 3 3 4 5 5 6 6 7 7 7 8 8 8 8 9 10 11 10 10 10 10 10 10 11 10 11 10 10 10 9 10 9 9 9 9 9 10 10 10 10 10 10
Wind_Direction
262 313 299 294 271 232 235 238 255 266 272 291 317 295 263 241 228 232 214 216 212 210 205 203 198 196 197 182 181 161 214 225 246 260 268 265 266 274 294 294 290 290 295 321
260 238 268 274 264 258 245 250 257 262 271 297 351 311 256 269 249 239 218 210 214 215 212 206 199 203 193 162 188 202 211 228 253 269 271 269 277 290 284 287 290 294 296 293
246 344 309 287 242 246 248 249 256 269 282 318 324 281 275 263 236 251 243 224 219 219 217 206 202 200 165 188 198 190 224 239 258 267 265 274 279 284 287 295 295 287 285 282
153 241 311 304 36 327 290 279 268 273 283 283 295 331 306 276 285 238 249 242 227 218 214 202 205 165 187 187 173 207 236 264 266 258 266 273 284 284 281 286 294 287 280 272
174 222 294 280 158 277 232 300 32 350 349 337 36 300 261 216 231 290 281 250 229 211 207 191 168 187 175 180 196 230 243 272 274 267 270 278 281 285 290 290 292 287 279 253
163 210 230 81 94 140 229 245 36 0 344 331 263 268 59 126 218 221 236 228 210 199 172 175 180 167 181 167 206 267 315 294 280 284 284 281 288 288 288 284 277 279 289 293
199 251 285 62 123 206 242 42 360 351 335 316 268 0 7 351 305 257 221 196 168 151 156 170 137 86 101 72 258 255 287 290 280 283 286 287 295 294 280 279 289 297 285 278
175 206 269 129 141 304 16 323 345 328 328 314 296 304 324 318 296 258 194 114 139 157 118 84 92 97 278 251 41 10 305 288 290 294 292 296 295 279 271 276 278 267 230 248
208 193 96 190 352 343 330 317 324 319 312 308 292 289 294 320 309 18 109 125 121 93 95 98 101 198 286 14 11 275 289 293 293 296 296 287 276 282 288 294 285 267 251 236
312 117 244 308 324 6 353 338 328 325 321 324 314 316 309 46 66 121 111 82 73 89 99 159 210 7 343 339 333 309 286 289 299 296 296 295 289 271 273 272 278 273 263 261
240 290 344 104 50 4 336 328 336 342 338 350 324 317 33 97 93 69 77 67 64 72 45 357 344 326 303 317 286 283 302 302 298 294 291 293 286 290 303 278 264 270 260 256
230 48 349 334 26 360 12 17 16 16 32 26 21 58 72 69 74 75 78 77 63 30 307 291 311 299 273 273 303 297 288 291 293 298 287 284 292 293 279 251 250 240 258 247
326 347 353 21 55 47 56 46 54 57 60 66 57 69 76 80 75 70 69 61 337 295 278 274 266 274 302 283 278 276 277 286 285 278 286 303 297 291 286 270 230 232 232 236
355 323 113 42 67 69 74 79 80 79 78 81 86 86 89 95 107 129 200 233 264 279 284 297 291 275 265 272 268 260 263 256 264 273 293 293 287 288 292 284 282 263 230 233
56 59 75 81 84 85 90 100 93 93 101 101 107 120 136 157 187 236 356 335 304 285 278 270 274 286 296 290 264 270 273 271 275 286 282 277 281 277 279 274 272 273 271 233
77 84 90 93 99 109 113 113 106 107 118 129 104 45 17 356 332 320 311 313 301 304 310 321 299 288 286 277 271 269 272 261 250 269 274 276 269 274 275 270 265 268 263 249
110 107 116 118 126 130 111 106 112 87 53 40 18 6 357 358 323 327 334 338 322 291 288 282 276 292 296 283 276 274 277 281 280 281 267 271 272 266 275 274 270 271 266 245
113 128 123 114 108 119 106 75 61 34 37 27 18 360 1 353 332 325 327 322 317 305 297 289 295 310 304 297 295 286 289 286 278 271 273 274 275 270 273 278 276 273 273 250
117 115 117 109 84 74 78 76 60 60 62 36 18 358 332 324 333 329 324 317 311 302 318 328 333 312 312 306 299 293 284 270 274 275 276 283 281 270 266 262 265 266 269 267
114 103 98 86 72 77 83 62 12 64 46 25 359 3 348 344 341 334 330 318 306 312 343 346 332 321 317 312 300 283 265 269 271 273 275 274 280 281 275 265 264 270 270 270
111 103 104 109 99 89 79 76 47 37 25 23 10 359 344 326 322 327 323 325 323 342 337 328 316 308 309 311 314 303 290 263 254 263 273 285 287 287 287 280 267 266 266 270
119 105 98 116 120 103 79 53 52 40 23 12 3 354 342 333 336 327 324 315 340 341 330 317 310 317 313 305 295 289 285 272 252 254 279 297 308 320 323 319 313 303 288 270
118 118 107 91 92 91 78 53 22 46 10 2 351 354 341 333 330 333 329 344 335 332 326 323 328 340 335 316 290 278 282 272 261 342 340 328 325 325 331 333 334 331 332 328
113 100 95 96 104 82 34 25 356 14 24 333 1 6 344 335 338 334 336 330 333 338 332 339 352 349 333 336 348 356 358 1 16 11 359 348 343 343 340 341 341 337 332 328
111 115 102 120 90 46 13 5 338 357 354 350 350 348 351 344 335 338 341 341 342 344 343 349 353 351 345 349 351 357 357 19 13 4 358 354 352 347 345 346 341 337 332 331
135 98 92 62 44 22 12 355 347 350 350 340 341 346 341 342 347 341 341 343 344 344 344 346 354 354 350 353 355 0 358 8 10 360 353 355 351 350 347 343 337 335 335 329
87 32 80 84 47 18 17 351 341 342 338 352 334 327 338 345 342 335 340 340 341 342 343 346 351 356 356 352 356 358 359 359 5 359 355 353 349 349 344 339 333 332 330 329